This demonstration page uses our WeatherBlox Daily Observations layout. Learn more.

Left ArrowRight Arrow

38.88101, -77.10428

Hourly Observations for July 1, 2022

Temp ( °F °C ) Dew Point ( °F °C ) Humidity (%) Winds ( mph kmh ) Pressure ( in mb ) Visibility ( mi km ) Precip ( " mm )
12:52 am 00:52 Mostly Cloudy 78 25.6 70 21.1 76 76 S 9 15 30.13 1020 10 16 0.00 0.00
1:52 am 01:52 Mostly Cloudy 77 25 70 21.1 79 79 SSW 7 11 30.13 1020 10 16 0.00 0.00
2:52 am 02:52 Mostly Cloudy 76 24.4 70 21.1 82 82 S 8 13 30.12 1020 10 16 0.00 0.00
3:52 am 03:52 Partly Cloudy 77 25 70 21.1 79 79 S 12 19 30.10 1019 10 16 0.00 0.00
4:52 am 04:52 Mostly Clear 75 23.9 69 20.6 82 82 SSW 10 17 30.10 1019 10 16 0.00 0.00
5:52 am 05:52 Mostly Sunny 74 23.3 68 20 82 82 SSW 9 15 30.10 1019 10 16 0.00 0.00
6:52 am 06:52 Mostly Sunny 75 23.9 69 20.6 82 82 S 6 9 30.10 1019 10 16 0.00 0.00
7:52 am 07:52 Mostly Sunny 78 25.6 70 21.1 76 76 S 9 15 30.10 1019 10 16 0.00 0.00
8:52 am 08:52 Mostly Sunny 80 26.7 69 20.6 69 69 SSW 9 15 30.11 1020 10 16 0.00 0.00
9:52 am 09:52 Mostly Sunny 82 27.8 71 21.7 69 69 S 13 20 30.09 1019 10 16 0.00 0.00
10:52 am 10:52 Mostly Sunny 85 29.4 71 21.7 63 63 S 13 20 30.08 1019 10 16 0.00 0.00
11:52 am 11:52 Partly Cloudy 88 31.1 69 20.6 54 54 SW 14 22 30.07 1018 10 16 0.00 0.00
12:52 pm 12:52 Partly Cloudy 90 32.2 70 21.1 52 52 S 13 20 30.06 1018 10 16 0.00 0.00
1:52 pm 13:52 Partly Cloudy 90 32.2 72 22.2 56 56 S 15 24 30.04 1017 10 16 0.00 0.00
2:52 pm 14:52 Mostly Cloudy 89 31.7 69 20.6 52 52 S 14 22 30.01 1016 10 16 0.00 0.00
3:52 pm 15:52 Cloudy 88 31.1 72 22.2 59 59 S 12 19 30.01 1016 10 16 0.00 0.00
4:52 pm 16:52 Cloudy 89 31.7 70 21.1 53 53 S 13 20 30.00 1016 10 16 0.00 0.00
5:52 pm 17:52 Cloudy 87 30.6 72 22.2 61 61 S 12 19 30.00 1016 10 16 0.00 0.00
6:52 pm 18:52 Cloudy 86 30 73 22.8 65 65 S 8 13 30.00 1016 10 16 0.00 0.00
7:52 pm 19:52 Cloudy 86 30 70 21.1 59 59 SSW 9 15 30.00 1016 10 16 0.00 0.00
8:52 pm 20:52 Mostly Cloudy 84 28.9 73 22.8 70 70 S 10 17 29.98 1015 10 16 0.00 0.00
9:52 pm 21:52 Mostly Cloudy 84 28.9 69 20.6 61 61 SSW 10 17 29.98 1015 10 16 0.00 0.00
10:52 pm 22:52 Partly Cloudy 83 28.3 69 20.6 63 63 S 10 17 29.97 1015 10 16 0.00 0.00
11:52 pm 23:52 Mostly Cloudy 82 27.8 69 20.6 65 65 S 9 15 29.96 1015 10 16 0.00 0.00

Powered by AerisWeather